Location: Milton
(43.5183°N, 79.8775°W)
Time: 21:12:38
(UTC+00:00)

COSMOS 2251 DEB - Visible Passes

Search period start: 27 May 2024 00:00
Search period end: 06 June 2024 00:00
Orbit: 708 x 804 km, 74.1° (Epoch: 27 May)

Date Brightness Start Highest point End Pass type
(mag) Time Alt. Az. Time Alt. Az. Time Alt. Az.
27 May ? 02:32:03 10° NW 02:35:30 19° W 02:38:54 10° SW visible
28 May ? 01:50:39 10° NW 01:55:10 35° WSW 01:59:36 10° SSW visible
30 May ? 02:12:40 10° WNW 02:15:12 14° W 02:17:43 10° SW visible
31 May ? 01:30:47 10° NW 01:34:54 26° W 01:38:57 10° SSW visible
02 Jun ? 01:54:31 10° W 01:54:47 10° W 01:55:02 10° W visible
